| time (UTC) | temp C | wind direction | speed KPH | gust KPH | rain 1hr cm | rain 24hr cm | rain mn cm | humidity % | barometer mb |
| 20260906024829 | 28 | 0 | 1.6 | 8.0 | 0.00 | 0.00 | 0.00 | 69 | 1005.8 |
| 20260906023327 | 28 | 0 | 1.6 | 14.5 | 0.00 | 0.00 | 0.00 | 69 | 1005.8 |
| 20260906021824 | 28 | 0 | 4.8 | 11.3 | 0.00 | 0.00 | 0.00 | 70 | 1005.9 |
| 20260906020321 | 28 | 112 | 4.8 | 9.7 | 0.00 | 0.00 | 0.00 | 70 | 1006.1 |
| 20260906014819 | 28 | 112 | 6.4 | 6.4 | 0.00 | 0.00 | 0.00 | 71 | 1006.3 |
| 20260906013317 | 28 | 135 | 9.7 | 11.3 | 0.00 | 0.00 | 0.00 | 71 | 1006.3 |
| 20260906011814 | 28 | 90 | 6.4 | 11.3 | 0.00 | 0.00 | 0.00 | 72 | 1006.5 |
| 20260906010311 | 28 | 135 | 6.4 | 6.4 | 0.00 | 0.00 | 0.00 | 73 | 1006.8 |
| 20260906004809 | 28 | 135 | 1.6 | 8.0 | 0.00 | 0.00 | 0.00 | 73 | 1006.9 |
| 20260906003307 | 28 | 135 | 4.8 | 9.7 | 0.00 | 0.00 | 0.00 | 74 | 1006.9 |
| 20260906001804 | 28 | 135 | 3.2 | 9.7 | 0.00 | 0.00 | 0.00 | 74 | 1006.9 |
| 20260906000303 | 28 | 135 | 4.8 | 9.7 | 0.00 | 0.00 | 0.00 | 74 | 1006.9 |
| 20260905234759 | 28 | 135 | 3.2 | 9.7 | 0.00 | 0.00 | 0.00 | 74 | 1007.1 |
| 20260905233257 | 28 | 135 | 3.2 | 9.7 | 0.00 | 0.00 | 0.00 | 74 | 1007.3 |
| 20260905231754 | 28 | 135 | 11.3 | 11.3 | 0.00 | 0.00 | 0.00 | 73 | 1007.3 |
| 20260905230251 | 28 | 135 | 4.8 | 6.4 | 0.00 | 0.00 | 0.00 | 72 | 1007.1 |
| 20260905224749 | 28 | 135 | 0.0 | 4.8 | 0.00 | 0.00 | 0.00 | 71 | 1007.1 |
| 20260905223247 | 28 | 135 | 3.2 | 6.4 | 0.00 | 0.00 | 0.00 | 70 | 1007.2 |
| 20260905221744 | 28 | 135 | 0.0 | 8.0 | 0.00 | 0.00 | 0.00 | 70 | 1007.5 |
| 20260905220241 | 28 | 135 | 4.8 | 6.4 | 0.00 | 0.00 | 0.00 | 70 | 1007.4 |
| 20260905214739 | 28 | 135 | 3.2 | 6.4 | 0.00 | 0.00 | 0.00 | 69 | 1007.2 |
| 20260905213237 | 28 | 135 | 1.6 | 6.4 | 0.00 | 0.00 | 0.00 | 69 | 1007.2 |
| 20260905211734 | 28 | 135 | 1.6 | 6.4 | 0.00 | 0.00 | 0.00 | 68 | 1007.1 |
| 20260905210231 | 28 | 135 | 0.0 | 6.4 | 0.00 | 0.00 | 0.00 | 68 | 1007.2 |
| 20260905204729 | 28 | 135 | 3.2 | 4.8 | 0.00 | 0.00 | 0.00 | 67 | 1007.2 |
| 20260905203227 | 28 | 135 | 3.2 | 3.2 | 0.00 | 0.00 | 0.00 | 67 | 1007.1 |
| 20260905201724 | 28 | 135 | 3.2 | 6.4 | 0.00 | 0.00 | 0.00 | 67 | 1007.2 |
| 20260905200221 | 28 | 135 | 1.6 | 3.2 | 0.00 | 0.00 | 0.00 | 68 | 1007.1 |
| 20260905194719 | 28 | 135 | 3.2 | 4.8 | 0.00 | 0.00 | 0.00 | 67 | 1007.3 |
| 20260905193217 | 28 | 135 | 1.6 | 4.8 | 0.00 | 0.00 | 0.00 | 67 | 1007.4 |
| 20260905191714 | 28 | 135 | 3.2 | 6.4 | 0.00 | 0.00 | 0.00 | 66 | 1007.2 |
| 20260905190211 | 28 | 135 | 1.6 | 4.8 | 0.00 | 0.00 | 0.00 | 67 | 1007.3 |
| 20260905184709 | 28 | 135 | 3.2 | 14.5 | 0.00 | 0.00 | 0.00 | 66 | 1007.6 |
| 20260905183207 | 28 | 135 | 6.4 | 9.7 | 0.00 | 0.00 | 0.00 | 67 | 1007.9 |
| 20260905181704 | 28 | 38 | 8.0 | 9.7 | 0.00 | 0.00 | 0.00 | 69 | 1008.2 |
| 20260905180201 | 28 | 135 | 8.0 | 11.3 | 0.00 | 0.00 | 0.00 | 69 | 1008.3 |
| 20260905174659 | 28 | 135 | 4.8 | 9.7 | 0.00 | 0.00 | 0.00 | 70 | 1008.4 |
| 20260905173157 | 28 | 135 | 1.6 | 11.3 | 0.00 | 0.00 | 0.00 | 70 | 1008.4 |
| 20260905171654 | 28 | 67 | 0.0 | 6.4 | 0.00 | 0.00 | 0.00 | 70 | 1008.5 |
| 20260905170151 | 28 | 67 | 1.6 | 6.4 | 0.00 | 0.00 | 0.00 | 70 | 1008.4 |
| 20260905164649 | 28 | 67 | 3.2 | 8.0 | 0.00 | 0.00 | 0.00 | 70 | 1008.5 |
| 20260905163147 | 28 | 67 | 4.8 | 6.4 | 0.00 | 0.00 | 0.00 | 70 | 1008.7 |
| 20260905161644 | 28 | 67 | 3.2 | 9.7 | 0.00 | 0.00 | 0.00 | 70 | 1008.7 |
| 20260905160141 | 28 | 67 | 1.6 | 11.3 | 0.00 | 0.00 | 0.00 | 70 | 1008.7 |
| 20260905154639 | 28 | 67 | 3.2 | 6.4 | 0.00 | 0.00 | 0.00 | 69 | 1008.6 |
| 20260905153137 | 28 | 67 | 1.6 | 9.7 | 0.00 | 0.00 | 0.00 | 70 | 1008.5 |
| 20260905151634 | 28 | 67 | 3.2 | 4.8 | 0.00 | 0.00 | 0.00 | 70 | 1008.7 |
| 20260905150131 | 28 | 69 | 1.6 | 6.4 | 0.00 | 0.00 | 0.00 | 70 | 1008.8 |
| 20260905144629 | 28 | 67 | 1.6 | 8.0 | 0.00 | 0.00 | 0.00 | 70 | 1008.8 |
| 20260905143127 | 28 | 67 | 6.4 | 6.4 | 0.00 | 0.00 | 0.00 | 71 | 1009.2 |
| 20260905141624 | 28 | 67 | 3.2 | 6.4 | 0.00 | 0.00 | 0.00 | 71 | 1009.1 |
| 20260905140121 | 28 | 67 | 4.8 | 4.8 | 0.00 | 0.00 | 0.00 | 70 | 1009.1 |
| 20260905134619 | 28 | 67 | 4.8 | 6.4 | 0.00 | 0.00 | 0.00 | 70 | 1009.4 |
| 20260905133117 | 28 | 67 | 3.2 | 6.4 | 0.00 | 0.00 | 0.00 | 70 | 1009.6 |
| 20260905131614 | 28 | 67 | 1.6 | 6.4 | 0.00 | 0.00 | 0.00 | 70 | 1009.6 |
| 20260905130111 | 28 | 74 | 3.2 | 6.4 | 0.00 | 0.00 | 0.00 | 69 | 1009.6 |
| 20260905124609 | 28 | 67 | 3.2 | 8.0 | 0.00 | 0.00 | 0.00 | 69 | 1009.8 |
| 20260905123107 | 28 | 67 | 0.0 | 4.8 | 0.00 | 0.00 | 0.00 | 69 | 1009.9 |
| 20260905121604 | 28 | 67 | 4.8 | 6.4 | 0.00 | 0.00 | 0.00 | 69 | 1010.0 |
| 20260905114559 | 28 | 67 | 0.0 | 4.8 | 0.00 | 0.00 | 0.00 | 68 | 1009.7 |
| 20260905113057 | 28 | 67 | 3.2 | 8.0 | 0.00 | 0.00 | 0.00 | 67 | 1009.5 |
| 20260905111554 | 28 | 67 | 4.8 | 6.4 | 0.00 | 0.00 | 0.00 | 68 | 1009.4 |
| 20260905110051 | 28 | 67 | 3.2 | 4.8 | 0.00 | 0.00 | 0.00 | 68 | 1009.3 |
| 20260905104549 | 29 | 67 | 1.6 | 6.4 | 0.00 | 0.00 | 0.00 | 67 | 1009.3 |
| 20260905103047 | 29 | 67 | 1.6 | 4.8 | 0.00 | 0.00 | 0.00 | 67 | 1009.1 |
| 20260905101543 | 29 | 67 | 0.0 | 3.2 | 0.00 | 0.00 | 0.00 | 67 | 1008.8 |
| 20260905100041 | 29 | 67 | 1.6 | 8.0 | 0.00 | 0.00 | 0.00 | 66 | 1008.6 |
| 20260905094538 | 29 | 67 | 6.4 | 8.0 | 0.00 | 0.00 | 0.00 | 67 | 1008.5 |
| 20260905093037 | 29 | 67 | 8.0 | 8.0 | 0.00 | 0.00 | 0.00 | 66 | 1008.3 |
| 20260905091534 | 29 | 67 | 3.2 | 11.3 | 0.00 | 0.00 | 0.00 | 65 | 1008.0 |
| 20260905090031 | 29 | 67 | 6.4 | 9.7 | 0.00 | 0.00 | 0.00 | 65 | 1007.7 |
| 20260905084528 | 29 | 67 | 3.2 | 8.0 | 0.00 | 0.00 | 0.00 | 65 | 1007.8 |
| 20260905083027 | 29 | 67 | 9.7 | 9.7 | 0.00 | 0.00 | 0.00 | 65 | 1007.7 |
| 20260905081523 | 29 | 67 | 1.6 | 6.4 | 0.00 | 0.00 | 0.00 | 65 | 1007.6 |
| 20260905080021 | 29 | 67 | 6.4 | 9.7 | 0.00 | 0.00 | 0.00 | 66 | 1007.4 |
| 20260905074518 | 29 | 67 | 8.0 | 9.7 | 0.00 | 0.00 | 0.00 | 67 | 1007.3 |
| 20260905073017 | 29 | 67 | 4.8 | 9.7 | 0.00 | 0.00 | 0.00 | 67 | 1007.3 |
| 20260905071513 | 29 | 67 | 9.7 | 12.9 | 0.00 | 0.00 | 0.00 | 68 | 1007.2 |
| 20260905070011 | 29 | 67 | 4.8 | 11.3 | 0.00 | 0.00 | 0.00 | 68 | 1007.0 |
| 20260905064508 | 29 | 67 | 8.0 | 11.3 | 0.00 | 0.00 | 0.00 | 69 | 1006.9 |
| 20260905063007 | 29 | 67 | 6.4 | 8.0 | 0.00 | 0.00 | 0.00 | 68 | 1007.1 |
| 20260905061503 | 28 | 90 | 4.8 | 9.7 | 0.00 | 0.00 | 0.00 | 69 | 1007.2 |
| 20260905060001 | 28 | 90 | 4.8 | 11.3 | 0.00 | 0.00 | 0.00 | 69 | 1007.2 |
| 20260905054458 | 28 | 12 | 6.4 | 8.0 | 0.00 | 0.00 | 0.00 | 70 | 1007.4 |
| 20260905052957 | 28 | 45 | 1.6 | 3.2 | 0.00 | 0.00 | 0.00 | 71 | 1007.4 |
| 20260905051453 | 28 | 135 | 3.2 | 9.7 | 0.00 | 0.00 | 0.00 | 70 | 1007.7 |
| 20260905045951 | 28 | 135 | 0.0 | 8.0 | 0.00 | 0.00 | 0.00 | 71 | 1007.8 |
| 20260905044448 | 28 | 135 | 4.8 | 4.8 | 0.00 | 0.00 | 0.00 | 71 | 1007.9 |
| 20260905042947 | 28 | 135 | 4.8 | 8.0 | 0.00 | 0.00 | 0.00 | 71 | 1008.0 |
| 20260905041443 | 28 | 135 | 1.6 | 4.8 | 0.00 | 0.00 | 0.00 | 71 | 1008.1 |
| 20260905035941 | 28 | 90 | 4.8 | 8.0 | 0.00 | 0.00 | 0.00 | 72 | 1008.3 |
| 20260905034438 | 28 | 87 | 0.0 | 6.4 | 0.00 | 0.00 | 0.00 | 72 | 1008.5 |
| 20260905032937 | 28 | 90 | 0.0 | 8.0 | 0.00 | 0.00 | 0.00 | 72 | 1008.5 |
| 20260905031433 | 28 | 92 | 9.7 | 12.9 | 0.00 | 0.00 | 0.00 | 73 | 1008.7 |
| 20260905025931 | 28 | 135 | 4.8 | 9.7 | 0.00 | 0.00 | 0.00 | 73 | 1009.0 |